Flag for U.S.A. Weather past 2 weeks in Cincinnati, Ohio, U.S.A.

Now
58 °F

Clear.


Feels Like: 58 °F
Forecast: 56 / 77 °F
Wind: No wind

Location: Cincinnati Municipal Airport Lunken Field

Current Time: Jul 30, 2014 at 2:15:07 AM

Latest Report: Jul 30, 2014 at 1:53 AM


Visibility: 10 mi

Pressure: 30.05 "Hg

Humidity: 97%

Dew point: 57 °F

Location of CincinnatiLocation

Historic Weather in Cincinnati — Graph

°F

Cincinnati temperature yesterday

Maximum temperature yesterday: 73 °F (at 4:53 PM)
Minimum temperature yesterday: 52 °F (at 6:53 AM)
Average temperature yesterday: 63 °F

Past Weeks' High & Low Weather Summary

 TemperatureHumidityPressure
High87 °F (Jul 21, 4:53 PM)100% (Jul 16, 6:53 AM)30.19 "Hg (Jul 16, 6:53 AM)
Low52 °F (Jul 16, 4:53 AM)37% (Jul 17, 2:53 PM)29.69 "Hg (Jul 27, 5:53 PM)
Average69 °F77%30.01 "Hg
* Reported Jul 15 12:53 AM — Jul 30 12:53 AM, Cincinnati, Weather by CustomWeather, © 2014

Note: Actual official high and low records may vary slightly from our data, if they occured in-between our weather recording intervals... More about our weather records

Advertising

Cincinnati weather history for previous 24 hours

 ConditionsComfort  
Time TempWeatherWind HumidityBarometerVisibility
12:53 AM
Jul 30
58 °FClear.No wind97%30.05 "Hg10 mi
11:53 PM
Jul 29
60 °FClear.No wind90%30.05 "Hg10 mi
10:53 PM63 °FPassing clouds.No wind81%30.06 "Hg10 mi
9:53 PM62 °FClear.No wind83%30.05 "Hg10 mi
8:53 PM65 °FSunny.No wind76%30.05 "Hg10 mi
7:53 PM70 °FSunny.7 mph57%30.04 "Hg10 mi
6:53 PM72 °FPartly sunny.7 mph52%30.03 "Hg10 mi
5:53 PM73 °FPartly sunny.9 mph50%30.05 "Hg10 mi
4:53 PM73 °FPartly sunny.3 mph48%30.06 "Hg10 mi
3:53 PM72 °FSunny.6 mph46%30.06 "Hg10 mi
2:53 PM71 °FPassing clouds.No wind47%30.06 "Hg10 mi
1:53 PM71 °FPassing clouds.12 mph47%30.06 "Hg10 mi
12:53 PM70 °FScattered clouds.3 mph51%30.07 "Hg10 mi
11:53 AM68 °FPartly sunny.12 mph55%30.08 "Hg10 mi
10:53 AM65 °FPartly sunny.6 mph68%30.07 "Hg10 mi
9:53 AM61 °FBroken clouds.3 mph75%30.07 "Hg10 mi
8:53 AM58 °FScattered clouds.5 mph81%30.06 "Hg10 mi
7:53 AM55 °FSunny.No wind87%30.04 "Hg10 mi
6:53 AM52 °FClear.No wind89%30.03 "Hg10 mi
5:53 AM54 °FClear.No wind83%30.02 "Hg10 mi
4:53 AM53 °FClear.No wind86%30.01 "Hg10 mi
3:53 AM54 °FPassing clouds.No wind90%30.01 "Hg10 mi
2:53 AM56 °FClear.No wind81%30.02 "Hg10 mi
Weather by CustomWeather, © 2014

See weather overviewHow to use our weather pages